Theta_e
289 291 290 290 291 292 290 291 287 289 290 293 294 294 296 296 298 297 297 298 297 296 296 297 298 298 298 299 300 301 300 300 300 300 301 300 297 297 294 294 294 293 292 291
280 289 290 287 291 291 292 292 291 290 289 296 295 295 296 296 297 296 296 297 296 297 296 297 297 297 298 298 298 298 298 297 299 297 294 291 289 289 289 289 290 289 288 288
277 282 284 279 287 290 291 293 293 288 293 294 293 295 295 296 296 296 296 296 296 296 296 296 297 298 296 297 297 296 293 291 291 289 288 288 287 287 287 286 286 286 286 286
279 282 274 285 293 293 291 293 294 294 294 296 295 297 297 296 294 296 296 295 294 295 295 296 298 298 297 296 294 291 289 289 287 287 286 285 285 285 285 285 285 285 285 286
279 279 283 285 286 290 289 289 295 294 295 295 296 294 294 296 294 294 293 294 294 295 296 296 296 296 294 290 289 288 288 288 287 287 284 284 285 284 284 284 283 284 285 285
283 274 274 284 289 294 293 281 294 295 295 295 295 290 290 292 293 293 293 292 292 293 295 295 294 293 289 288 288 287 287 287 286 286 284 283 283 284 283 284 284 283 284 285
280 275 280 287 288 294 279 282 290 295 296 293 292 293 291 292 291 291 290 290 290 293 293 292 290 288 288 287 287 287 286 285 283 282 281 282 281 280 281 283 283 283 283 284
278 273 276 289 289 286 289 287 288 291 293 293 291 290 290 290 289 288 287 287 288 289 287 287 285 287 286 285 286 283 282 281 280 279 281 281 280 279 282 283 283 282 282 282
285 282 288 291 290 292 291 290 290 290 290 291 289 289 288 288 287 285 285 284 284 283 282 282 282 283 283 282 282 280 279 277 277 278 280 280 280 278 281 283 282 281 281 281
283 285 286 288 288 290 291 290 292 291 291 290 289 288 287 286 285 282 281 280 279 279 278 279 279 280 278 279 279 278 277 277 277 277 277 278 279 279 278 279 279 281 281 281
281 282 285 286 287 288 289 289 289 289 289 289 288 286 285 282 281 281 280 279 278 278 277 277 277 276 276 278 278 279 277 276 276 277 275 276 277 276 277 277 279 277 278 281
281 287 288 290 288 289 287 286 285 285 284 285 285 283 282 280 280 279 277 277 276 275 274 273 272 272 273 274 276 275 277 276 276 275 274 275 275 275 283 284 285 286 286 282
288 290 290 289 288 288 286 284 284 284 284 283 282 282 281 279 277 277 274 274 273 272 271 270 269 269 269 270 272 273 274 275 274 275 274 274 273 273 272 276 284 283 284 285
284 284 284 284 284 284 284 281 280 279 279 280 279 277 277 275 274 273 272 270 269 268 267 266 266 265 266 267 269 271 271 273 271 271 272 271 271 271 271 271 271 272 279 283
279 282 284 282 281 279 280 279 277 276 276 274 274 274 274 272 271 270 268 268 267 265 263 263 262 263 263 264 266 267 270 270 269 269 269 270 270 270 269 269 269 269 272 278
275 277 277 278 277 277 277 276 275 273 272 271 271 270 270 269 267 266 265 265 264 261 258 259 259 260 260 261 264 266 267 270 269 267 268 268 268 272 275 271 272 271 272 271
273 273 272 273 274 272 271 273 273 271 269 268 267 267 267 266 264 263 262 261 261 259 256 256 256 259 259 259 261 263 264 266 267 266 267 264 264 265 269 274 275 276 277 277
268 269 271 272 271 269 267 266 266 265 265 265 267 268 268 268 265 262 258 260 259 258 256 255 256 257 257 258 259 261 262 261 261 261 262 262 261 262 262 262 262 264 266 266
264 264 264 265 266 265 264 263 263 263 265 267 265 262 262 261 261 257 257 259 258 257 256 253 263 257 256 260 261 260 259 259 259 260 260 261 261 260 260 260 260 261 263 265
261 262 261 260 261 262 261 263 262 261 261 265 265 264 262 259 257 256 256 257 254 254 251 253 253 254 256 256 261 257 257 257 257 257 258 257 257 258 258 259 259 259 259 261
259 260 260 260 258 259 259 260 261 260 260 261 262 260 259 257 257 255 258 258 254 252 253 256 254 254 256 257 258 256 256 255 255 255 255 255 256 255 256 256 256 258 258 259
257 258 258 260 259 257 258 258 259 260 259 259 258 257 260 260 259 256 253 256 255 258 255 255 255 256 258 259 256 255 254 255 255 254 254 253 254 255 255 256 256 258 258 259
256 257 257 257 256 257 258 257 257 256 257 256 256 256 257 257 258 259 259 255 254 255 255 255 258 261 262 257 255 254 254 254 253 254 253 253 253 254 256 255 256 256 257 258
255 255 256 257 258 259 258 256 256 256 256 256 256 255 255 257 257 257 257 257 257 256 255 256 258 264 259 254 255 254 253 252 253 252 253 256 254 254 254 255 255 255 255 256
254 255 256 255 257 256 256 255 256 257 256 256 255 255 254 255 254 254 254 254 257 256 254 257 262 261 253 252 252 253 254 253 252 251 252 252 251 252 252 251 253 253 253 253
251 252 253 253 253 253 253 254 254 255 254 254 254 254 254 254 255 255 255 256 255 256 255 255 253 253 252 254 254 253 255 255 255 254 252 252 252 252 252 253 253 253 253 252
252 253 252 253 253 253 253 252 251 252 252 251 252 254 253 252 253 255 255 254 254 254 254 254 255 256 255 254 254 255 254 254 255 254 252 252 253 253 253 253 253 253 253 253
Wind_Speed
5 16 17 25 27 23 20 24 13 20 19 12 6 5 6 7 5 2 4 5 4 3 4 4 3 5 5 6 6 6 6 6 6 3 4 5 6 7 7 7 6 6 6 6
6 6 17 21 20 23 29 28 16 6 11 7 4 4 5 4 5 5 5 5 4 4 4 4 5 6 6 5 5 4 5 5 4 6 4 2 4 5 5 5 6 6 7 9
2 3 9 2 28 27 25 21 24 14 13 7 6 5 5 6 5 5 5 4 6 6 5 4 5 4 4 5 4 5 4 2 3 4 5 6 6 5 5 6 5 8 8 9
3 3 3 8 21 20 23 23 25 19 4 8 9 6 6 4 1 5 5 2 4 5 6 6 3 2 2 3 4 3 1 2 2 3 4 4 5 5 5 5 8 8 8 8
7 6 4 4 6 21 18 17 21 25 15 10 8 2 6 1 5 5 5 5 4 5 5 6 5 3 5 4 4 4 4 5 6 6 5 6 5 5 4 3 3 5 5 7
4 7 12 1 9 15 7 7 15 15 18 19 10 10 4 5 5 7 7 5 5 5 4 7 7 6 6 3 2 2 3 5 5 5 5 6 5 6 3 3 4 4 5 4
6 5 8 7 7 14 9 10 12 19 15 9 7 6 8 8 7 5 4 6 6 7 7 7 6 6 7 5 6 5 2 2 2 1 1 1 3 2 3 4 5 5 7 6
4 3 12 8 9 17 7 2 6 6 8 9 9 9 8 9 7 7 7 7 8 7 7 7 7 6 7 8 6 5 4 3 2 1 2 3 5 2 1 3 4 4 5 4
13 7 4 16 11 5 5 7 5 7 5 9 11 7 9 8 7 6 7 5 5 5 6 7 7 7 8 6 6 5 4 4 3 3 2 2 3 2 2 4 4 4 5 4
6 5 8 10 3 6 4 7 7 6 8 8 9 10 9 8 6 6 5 5 2 5 7 7 6 8 5 5 5 5 5 4 3 3 3 3 2 2 2 2 1 3 4 4
1 1 6 3 5 8 6 8 9 8 6 9 13 10 10 7 6 5 5 5 5 7 7 8 7 8 7 7 6 6 5 3 4 3 2 1 1 2 2 2 3 2 2 3
7 11 7 12 10 10 9 7 8 13 8 6 8 11 12 8 6 5 7 5 8 8 7 6 5 7 8 8 6 4 4 2 2 2 2 1 0 2 3 5 5 8 7 5
1 6 4 6 10 7 8 9 6 9 9 12 8 11 10 10 7 8 7 7 7 7 6 5 7 9 10 10 7 7 5 4 3 3 2 1 1 1 2 4 7 6 9 12
9 4 8 3 7 8 14 13 13 13 10 10 11 9 11 11 9 9 9 6 7 7 8 7 9 11 9 10 8 6 6 6 3 3 2 2 1 1 1 1 2 3 6 10
15 9 5 13 13 11 13 14 15 12 10 11 7 11 10 11 10 8 6 7 9 8 8 7 6 7 8 7 6 5 4 4 3 3 3 3 3 3 2 2 2 3 3 3
12 8 9 12 12 10 12 11 16 11 10 8 9 9 9 10 10 9 7 6 7 5 3 4 5 6 6 6 6 4 4 6 5 3 3 3 3 3 4 3 3 3 3 4
4 6 6 8 8 8 10 8 10 8 8 9 8 7 9 9 9 8 7 7 7 6 4 2 4 5 6 6 5 3 3 4 5 4 4 3 2 3 3 4 4 5 5 5
8 7 11 10 10 12 11 11 11 9 6 4 7 8 8 7 8 5 3 5 5 6 6 4 5 5 5 6 5 4 3 3 3 2 2 3 3 3 2 2 2 3 4 4
11 11 12 14 12 11 10 10 9 7 6 5 9 9 7 7 5 3 3 5 5 4 5 4 7 5 5 8 6 4 3 4 4 3 3 4 4 3 3 3 3 3 4 5
11 9 11 13 13 11 10 8 8 8 6 5 7 8 8 5 4 4 3 5 3 2 3 4 4 4 4 5 7 3 3 3 3 3 3 3 3 4 4 4 3 3 3 3
9 10 10 10 11 10 10 8 6 8 6 6 6 6 5 2 2 1 3 3 2 2 4 5 3 3 3 3 4 3 3 3 3 3 3 3 4 3 3 3 3 3 4 3
8 8 7 7 8 9 8 7 7 6 6 5 5 4 3 4 3 3 3 3 1 4 3 2 1 4 2 6 2 2 3 3 3 3 3 3 3 4 5 4 4 4 4 4
6 6 6 7 7 5 6 7 6 6 5 5 5 4 3 2 1 2 1 1 1 3 2 2 5 7 6 3 3 3 3 3 2 2 3 3 3 3 4 4 4 4 4 4
6 6 7 5 3 4 6 6 5 4 3 3 3 2 2 2 2 2 2 3 4 4 3 4 4 7 5 2 2 2 2 2 2 3 3 5 3 3 3 3 4 4 5 4
4 3 4 6 5 4 4 4 3 3 4 3 2 2 2 2 1 2 3 4 7 4 3 5 7 6 2 3 3 3 2 2 3 3 3 3 3 4 4 4 4 4 4 4
4 3 3 3 1 2 2 3 3 3 2 2 2 1 2 2 2 3 3 5 4 5 4 4 2 3 3 4 4 4 4 4 4 4 4 3 4 4 4 5 5 5 5 4
3 2 2 2 1 0 1 2 2 2 2 1 4 4 2 2 4 4 5 4 4 4 4 4 4 5 4 4 5 5 4 4 5 4 4 4 5 5 6 5 5 5 5 5
Wind_Direction
164 159 166 178 182 183 197 218 187 229 224 223 190 198 153 172 213 271 303 295 284 258 269 264 252 235 233 212 194 178 192 200 217 194 169 157 162 167 156 157 165 163 162 154
1 162 164 183 183 191 202 214 227 242 270 195 165 140 159 256 285 283 277 265 307 322 303 266 243 232 225 227 205 169 199 219 197 159 145 135 128 145 151 156 158 157 167 163
159 76 87 320 200 199 209 205 215 210 222 119 125 144 184 242 241 245 270 329 327 319 311 298 256 220 231 216 172 177 188 210 159 141 147 164 159 158 166 173 151 162 159 160
136 112 195 249 177 204 210 208 217 234 202 192 197 224 205 185 166 266 267 300 10 347 337 337 350 73 122 131 134 144 115 160 160 175 192 173 165 179 167 165 178 179 174 169
148 211 280 208 210 189 181 222 217 224 225 228 240 247 261 311 66 86 78 50 28 358 325 345 15 45 90 102 125 143 191 205 205 191 179 179 174 174 179 167 187 187 179 170
148 156 210 218 174 176 99 267 203 206 213 218 201 228 186 125 85 65 53 43 18 335 9 33 19 49 61 48 38 292 259 239 220 197 180 193 175 168 158 165 177 147 127 124
176 207 263 201 165 119 143 234 197 202 204 183 176 193 150 120 86 88 71 37 14 24 50 30 19 45 55 39 12 326 302 242 219 134 186 170 131 133 148 154 154 160 145 144
127 147 255 170 141 153 198 108 161 129 158 160 128 117 119 116 108 88 64 36 31 46 45 26 16 43 51 39 352 11 39 41 23 108 137 135 132 97 93 165 165 164 157 155
189 192 212 175 169 158 139 142 183 128 131 122 128 139 137 130 117 94 78 64 45 67 63 33 22 34 58 3 8 30 44 34 31 41 48 67 96 108 142 170 168 177 182 191
103 209 168 189 48 136 156 155 139 124 138 129 129 125 111 106 105 97 78 61 33 73 60 46 22 40 43 13 13 55 53 43 46 67 35 44 53 134 153 186 202 185 216 223
98 8 63 135 183 164 118 109 109 90 103 121 121 117 116 109 100 93 85 65 57 67 61 40 21 32 19 15 20 59 60 40 34 43 56 28 303 202 219 256 190 194 222 206
213 178 162 199 162 145 140 144 139 124 98 79 110 117 116 102 87 88 70 49 62 51 54 33 33 22 6 357 8 53 72 60 62 63 67 52 125 307 318 280 301 274 271 199
356 147 80 116 122 113 122 132 121 96 98 114 92 114 113 118 105 89 74 70 65 59 47 45 43 41 6 355 4 20 39 17 29 52 59 56 20 15 325 323 278 291 293 273
18 19 64 142 158 119 111 104 91 81 78 91 108 95 109 105 100 95 84 83 73 69 60 46 35 25 2 348 351 19 13 32 12 360 16 30 30 338 356 343 307 309 281 268
359 357 92 102 94 95 109 114 101 102 102 84 72 105 109 108 99 95 87 93 81 63 40 36 41 24 341 343 351 5 27 9 357 357 12 1 356 356 351 339 312 278 311 273
321 33 52 94 108 105 109 102 111 105 98 95 96 89 95 100 99 92 80 85 97 82 28 25 14 337 337 346 352 2 4 21 24 351 359 10 11 13 351 347 330 305 302 283
3 39 25 80 81 78 64 69 96 101 104 99 100 104 102 98 88 78 70 73 86 92 84 50 340 334 339 348 351 349 359 357 21 17 10 353 355 6 345 337 330 326 322 326
14 34 51 72 89 88 70 63 64 61 65 88 102 107 100 98 112 108 107 126 103 78 46 6 326 351 352 349 358 347 2 356 10 10 359 360 328 316 326 334 321 316 310 315
32 46 51 60 64 77 70 69 68 69 53 83 96 90 89 80 79 74 71 91 82 78 349 342 350 1 353 345 5 343 2 1 1 346 6 2 351 337 345 339 326 321 325 329
39 45 60 68 59 67 78 65 77 77 40 58 95 97 91 80 78 78 80 90 135 170 297 308 334 351 334 339 344 342 356 355 353 340 354 346 345 331 318 323 325 321 326 320
30 39 54 65 70 63 60 50 72 71 58 51 78 78 94 105 74 71 113 114 312 354 339 324 13 347 316 333 315 349 351 346 354 341 331 317 321 315 310 309 317 320 317 317
12 29 39 52 72 74 55 54 54 59 59 55 54 51 65 73 49 77 62 101 299 2 334 307 324 308 302 342 324 358 349 349 333 342 336 329 325 324 317 323 319 317 327 328
8 11 29 36 43 52 56 43 37 34 36 31 25 16 22 336 330 41 88 117 3 309 308 295 318 330 1 342 341 341 334 328 317 307 306 308 302 301 297 298 296 297 306 314
360 14 19 12 28 61 54 26 15 27 14 349 338 331 342 1 9 70 72 340 327 325 284 282 297 322 358 300 316 322 314 303 294 294 311 308 294 295 303 297 302 300 305 307
348 353 22 17 39 40 29 8 343 46 19 357 318 261 247 271 234 319 333 311 307 315 286 295 303 314 305 291 285 280 272 267 264 252 255 249 268 290 288 293 284 281 285 280
347 351 346 358 351 2 3 359 1 339 4 340 295 344 306 268 247 263 260 272 272 282 274 275 267 264 259 263 261 258 260 257 258 256 251 259 273 270 266 267 269 267 262 266
305 288 335 338 165 98 351 331 312 297 341 336 295 297 319 304 285 284 276 274 272 269 268 262 254 258 252 256 265 265 261 252 250 254 248 251 246 251 252 251 251 253 258 262